Regional Weather Roundup
Issued by NWS

Home | Current Version | Previous Version | Text Only | Print | Product List | Glossary On
Versions: 1 2 3 4 5 6 7 8 9 10 11 12 13 14 15 16 17 18 19 20 21 22 23 24 25 26 27 28 29 30 31 32 33 34 35 36 37 38 39 40 41 42 43 44 45 46 47 48 49 50
000
ASUS43 KDTX 240910
RWRMI
MICHIGAN HOURLY REGIONAL WEATHER ROUNDUP
NATIONAL WEATHER SERVICE DETROIT/PONTIAC MI
ISSUED BY NATIONAL WEATHER SERVICE GRAND RAPIDS MI
400 AM EST TUE JAN 24 2017

NOTE: "FAIR" INDICATES FEW OR NO CLOUDS BELOW 12,000 FEET WITH NO
SIGNIFICANT WEATHER AND/OR OBSTRUCTION TO VISIBILITY.

MIZ047>049-052>055-059>063-066>070-074>076-081>083-241000-
SOUTHEAST LOWER MICHIGAN

CITY           SKY/WX    TMP DP  RH WIND       PRES   REMARKS
ADRIAN         CLOUDY    39  39 100 N5        29.73R
ALMA           LGT SNOW  36  36  99 W5        29.75R WCI  32
ANN ARBOR      CLOUDY    39  39 100 NW5       29.71S FOG
BAD AXE        LGT SNOW  34  34 100 CALM      29.74S
DETROIT CITY   CLOUDY    38  36  92 CALM      29.72S
DETROIT        LGT RAIN  39  38  96 CALM      29.72S VSB 1/4
FLINT          LGT RAIN  37  36  96 N3        29.73R VSB 1
GROSSE ILE     LGT RAIN  38  37  96 CALM      29.71S
HILLSDALE      CLOUDY    36  36 100 NW7       29.71R FOG     WCI  30
HOWELL         RAIN      36  36  99 CALM      29.72R

CITY           SKY/WX    TMP DP  RH WIND       PRES   REMARKS
JACKSON        CLOUDY    38  36  92 NW5       29.72S WCI  34
LANSING        CLOUDY    37  36  93 NW5       29.74R FOG     WCI  34
MASON          LGT RAIN  36  36 100 NW3       29.73R
MONROE         CLOUDY    38  38 100 CALM      29.71S FOG
MT. CLEMENS    CLOUDY    37  37 100 NW5       29.69F WCI  33
PONTIAC        FOG       37  35  92 CALM      29.70S VSB 1/2
PORT HOPE        N/A     36  34  92 S3        29.73R
PORT HURON     CLOUDY    36  34  93 CALM      29.71F FOG
TRI CITIES     FOG       35  35 100 N5        29.74S VSB 1/4 WCI  31
YPSILANTI      CLOUDY    41  41 100 NW5       29.72S FOG
$$
MIZ043>046-050>051-056>058-064>065-071>073-077>080-241000-
SOUTHWEST LOWER MICHIGAN

CITY           SKY/WX    TMP DP  RH WIND       PRES   REMARKS
BATTLE CREEK   CLOUDY    39  39 100 NW7       29.75R WCI  34
BENTON HARBOR  CLOUDY    39  36  89 NW8       29.80R WCI  33
BIG RAPIDS     CLOUDY    36  35  98 NW3       29.74R
COLDWATER      CLOUDY    40  40 100 NW7       29.74R WCI  35
HOLLAND        CLOUDY    38  36  92 NW9       29.79R WCI  31
GRAND RAPIDS   CLOUDY    39  37  92 NW7       29.75S WCI  34
KALAMAZOO      CLOUDY    39  36  89 W7        29.76R WCI  34
MARSHALL       LGT RAIN  39  38  98 CALM      29.73S
MOUNT PLEASANT LGT RAIN  36  36 100 CALM      29.74R
MUSKEGON       CLOUDY    39  36  89 W6        29.78R WCI  35
STURGIS        CLOUDY    38  38 100 NW7       29.76R FOG     WCI  32
$$
MIZ016>042-241000-
NORTHERN LOWER MICHIGAN

CITY           SKY/WX    TMP DP  RH WIND       PRES   REMARKS
ALPENA         LGT RAIN  36  35  96 CALM      29.76S
BEAVER ISLAND  FOG       33  33 100 NE5       29.76S VSB 3/4 WCI  28
BELLAIRE       FOG       33  33 100 CALM      29.75S VSB 1/4
CADILLAC       FOG       35  34  96 NW3       29.72S VSB 1
CHARLEVOIX     CLOUDY    35  35 100 CALM      29.78S
GAYLORD        LGT RAIN  35  32  88 CALM      29.73S FOG
HOUGHTON LAKE  MIX PCPN  34  34 100 NE3       29.73S
MANISTEE       FOG       36  36 100 NW7       29.77S VSB 3/4 WCI  30
OSCODA         MIX PCPN  36  35  98 CALM      29.74S
PELLSTON       LGT RAIN  34  32  92 CALM      29.76S VSB 1
TRAVERSE CITY  CLOUDY    37  36  96 CALM      29.75R
LUDINGTON      CLOUDY    36  36 100 NW7       29.78R WCI  31
$$
MIZ007>008-015-241000-
EASTERN UPPER MICHIGAN

CITY           SKY/WX    TMP DP  RH WIND       PRES   REMARKS
KINROSS        LGT RAIN  33  33 100 E7        29.77R WCI  27
MACKINAC ISLAN LGT SNOW  33  33 100 E7        29.76S WCI  27
NEWBERRY       CLOUDY    32  31  97 CALM      29.77R FOG
S. S. MARIE    LGT RAIN  35  33  92 E5        29.77S WCI  31
$$
MIZ004>006-011>014-085-241000-
CENTRAL UPPER MICHIGAN

CITY           SKY/WX    TMP DP  RH WIND       PRES   REMARKS
MANISTIQUE     CLOUDY    32  32  99 CALM      29.77R FOG
ESCANABA       CLOUDY    34  34 100 CALM      29.79R
SAWYER-GWINN   CLOUDY    33  32  99 N5        29.77S WCI  28
$$
MIZ001>003-009>011-084-241000-
WESTERN UPPER MICHIGAN

CITY           SKY/WX    TMP DP  RH WIND       PRES   REMARKS
IRON MOUNTAIN  CLOUDY    34  32  92 NW6       29.77R WCI  29
HOUGHTON       FOG       34  32  92 NW7       29.78S VSB 1/4 WCI  28
COPPER HARBOR    N/A     35  34  96 NW3       29.79S
IRONWOOD       CLOUDY    33  33 100 W7        29.82R WCI  27
$$

ABBREVIATIONS USED IN REMARKS
   TC - TEMPERATURE IN CELSIUS
  WCI - WIND CHILL INDEX
   HX - HEAT INDEX
  VSB - VISIBILITY




USA.gov is the U.S. government's official web portal to all federal, state and local government web resources and services.